User: anonymous   Login
Location: Newark
(34.6000°N, 98.3833°W)
Time: 15:27:40
(UTC+00:00)
Language:

N. Korean satellite - Orbit

View from above orbital plane
View from above orbital plane
View from above satellite
View from above satellite

Ground track
Ground track

The orbit data is extracted from the following two-line orbital elements,

1 39026U 12072A   19316.09719893  .00001480  00000-0  55613-4 0  9995
2 39026  97.2157 314.5670 0036235 302.3544  57.4190 15.28159338383958
Epoch (UTC): 12 November 2019 02:19:57
Eccentricity: 0.0036235
inclination: 97.2157°
perigee height: 456 km
apogee height: 506 km
right ascension of ascending node: 314.5670°
argument of perigee: 302.3544°
revolutions per day: 15.28159338
mean anomaly at epoch: 57.4190°
orbit number at epoch: 38395

The dashed part of the orbit path shows where the satellite is in the earth's shadow,  

DLR